Weather History for Vernal, UT

Change the Weather History Date:

Monday, October 8, 2012

  Actual Average Record
Temperature  
Mean Temperature 46 °F 51 °F  
Max Temperature 63 °F 65 °F 80 °F (1935)
Min Temperature 29 °F 38 °F 20 °F (1955)
Degree Days  
Heating Degree Days 19 14  
Month to date heating degree days 108 99  
Since 1 July heating degree days 178 281  
Cooling Degree Days 0 0  
Month to date cooling degree days 0 0  
Year to date cooling degree days 810 511  
Moisture  
Dew Point 19 °F    
Average Humidity 40    
Maximum Humidity 63    
Minimum Humidity 16    
Precipitation  
Precipitation 0.00 in 0.04 in 1.13 in (1961)
Month to date precipitation 0.00 0.37  
Year to date precipitation 2.95 7.06  
Sea Level Pressure  
Sea Level Pressure 30.02 in    
Wind  
Wind Speed 4 mph (West)    
Max Wind Speed 8 mph    
Max Gust Speed 9 mph    
Visibility 10 miles    
Events      
T = Trace of Precipitation, MM = Missing Value Source: NWS Daily Summary

Daily Weather History Graph

Daily Weather History Graph

Search for Another Location

Airport:

Trip Planner

Search our weather history database for the weather conditions in past years. The results will help you decide how hot, cold, wet, or windy it might be!

Date:

Astronomy

Oct. 08, 2012 Rise Set
Actual Time 7:22 AM MDT 6:47 PM MDT
Civil Twilight 6:54 AM MDT 7:15 PM MDT
Nautical Twilight 6:23 AM MDT 7:46 PM MDT
Astronomical Twilight 5:51 AM MDT 8:18 PM MDT
Moon 12:03 AM MDT (10/8) 2:40 PM MDT (10/8)
Length of Visible Light 12h 20m
Length of Day
11h 25m
Last Quarter, 46% of the Moon is Illuminated
Oct 8
Last Quarter
Oct 15
New
Oct 21
First Quarter
Oct 29
Full
Nov 6
Last Quarter

Hourly Weather History & Observations

Time (MDT) Temp. Windchill Dew Point Humidity Pressure Visibility Wind Dir Wind Speed Gust Speed Precip Events Conditions
12:53 AM 37.0 °F 33.3 °F 19.9 °F 50% 30.09 in 10.0 mi WNW 4.6 mph - N/A   Clear
1:53 AM 36.0 °F 33.3 °F 19.9 °F 52% 30.08 in 10.0 mi WNW 3.5 mph - N/A   Clear
2:53 AM 35.1 °F 30.1 °F 19.0 °F 52% 30.09 in 10.0 mi WSW 5.8 mph - N/A   Clear
3:53 AM 32.0 °F 28.7 °F 19.9 °F 61% 30.07 in 10.0 mi NW 3.5 mph - N/A   Clear
4:53 AM 32.0 °F 25.6 °F 19.0 °F 59% 30.07 in 10.0 mi West 6.9 mph - N/A   Clear
5:53 AM 30.9 °F 26.2 °F 19.0 °F 61% 30.09 in 10.0 mi WNW 4.6 mph - N/A   Clear
6:53 AM 30.9 °F 26.2 °F 18.0 °F 59% 30.10 in 10.0 mi West 4.6 mph - N/A   Clear
7:53 AM 30.9 °F 26.2 °F 19.0 °F 61% 30.14 in 10.0 mi WNW 4.6 mph - N/A   Clear
8:53 AM 39.9 °F - 19.9 °F 45% 30.12 in 10.0 mi Calm Calm - N/A   Clear
9:53 AM 45.0 °F 42.6 °F 19.9 °F 37% 30.10 in 10.0 mi SE 4.6 mph - N/A   Clear
10:53 AM 48.0 °F - 17.1 °F 29% 30.08 in 10.0 mi SE 4.6 mph - N/A   Clear
11:53 AM 52.0 °F - 17.1 °F 25% 30.05 in 10.0 mi SE 4.6 mph - N/A   Clear
12:53 PM 55.9 °F - 16.0 °F 21% 30.01 in 10.0 mi Calm Calm - N/A   Clear
1:53 PM 57.0 °F - 15.1 °F 19% 29.98 in 10.0 mi Calm Calm - N/A   Clear
2:53 PM 60.1 °F - 16.0 °F 18% 29.94 in 10.0 mi SE 5.8 mph - N/A   Clear
3:53 PM 61.0 °F - 15.1 °F 17% 29.93 in 10.0 mi Calm Calm - N/A   Clear
4:53 PM 62.1 °F - 16.0 °F 17% 29.91 in 10.0 mi Calm Calm - N/A   Clear
5:53 PM 62.1 °F - 19.0 °F 19% 29.91 in 10.0 mi Calm Calm - N/A   Clear
6:53 PM 55.9 °F - 21.9 °F 27% 29.92 in 10.0 mi North 3.5 mph - N/A   Clear
7:53 PM 48.9 °F - 26.1 °F 41% 29.96 in 10.0 mi West 6.9 mph - N/A   Clear
8:53 PM 45.0 °F 42.6 °F 24.1 °F 44% 29.95 in 10.0 mi WNW 4.6 mph - N/A   Clear
9:53 PM 44.1 °F 40.1 °F 23.0 °F 43% 29.95 in 10.0 mi West 6.9 mph - N/A   Clear
10:53 PM 42.1 °F 38.4 °F 23.0 °F 47% 29.96 in 10.0 mi West 5.8 mph - N/A   Clear
11:53 PM 42.1 °F 39.2 °F 23.0 °F 47% 29.95 in 10.0 mi WNW 4.6 mph - N/A   Clear